Location: RyutenAO
(34.8939°N, 134.0022°E)
Time: 23:38:08
(UTC+09:00)

Tiangong - Pass Details

Date: 30 November 2022
Orbit: 383 x 387 km, 41.5° (Epoch: 27 January)

Event Time Altitude Azimuth Distance (km) Brightness Sun altitude
Rises 18:13:00 0° 250° (WSW) 2,253 3.6 -16.2°
Reaches altitude 10° 18:15:05 10° 253° (WSW) 1,404 2.1 -16.6°
Maximum altitude 18:18:13 68° 336° (NNW) 420 -2.0 -17.2°
Enters shadow 18:18:51 51° 37° (NE) 497 -2.0 -17.4°
